• In Belarus
  • List of Countries
  • For 7 days
  • Water Temperature
  • Satellite Maps
  • Weather Map
  • Weather Widgets
  • user-avatar
    Login

    Hourly Weather Cybino

    Today, 19 May, Sunday

    Time Temperature Precipitation Wind Pressure Humidity
    00:00 +10°C° 0 mm 2 mps 752 mmHg 77%
    01:00 +9°C° 0 mm 2 mps 752 mmHg 77%
    02:00 +9°C° 0 mm 1 mps 752 mmHg 80%
    03:00 +10°C° 0 mm 1 mps 752 mmHg 78%
    04:00 +9°C° 0 mm 2 mps 752 mmHg 76%
    05:00 +9°C° 0 mm 2 mps 752 mmHg 74%
    06:00 +12°C° 0 mm 2 mps 752 mmHg 66%
    07:00 +13°C° 0 mm 3 mps 752 mmHg 58%
    08:00 +16°C° 0 mm 3 mps 752 mmHg 49%
    09:00 +17°C° 0 mm 3 mps 752 mmHg 47%
    10:00 +18°C° 0 mm 4 mps 752 mmHg 45%
    11:00 +19°C° 0 mm 4 mps 752 mmHg 44%
    12:00 +19°C° 0 mm 4 mps 752 mmHg 43%
    13:00 +20°C° 0 mm 4 mps 752 mmHg 42%
    14:00 +20°C° 0 mm 4 mps 752 mmHg 41%
    15:00 +20°C° 0 mm 4 mps 752 mmHg 43%
    16:00 +20°C° 0 mm 4 mps 752 mmHg 45%
    17:00 +19°C° 0 mm 3 mps 752 mmHg 46%
    18:00 +17°C° 0 mm 3 mps 752 mmHg 54%
    19:00 +15°C° 0 mm 2 mps 752 mmHg 61%
    20:00 +12°C° 0 mm 1 mps 753 mmHg 69%
    21:00 +11°C° 0 mm 1 mps 753 mmHg 68%
    22:00 +10°C° 0 mm 1 mps 753 mmHg 67%
    23:00 +9°C° 0 mm 1 mps 753 mmHg 66%

    Tomorrow, 20 May, Monday

    Time Temperature Precipitation Wind Pressure Humidity
    00:00 +9°C° 0 mm 1 mps 754 mmHg 65%
    01:00 +8°C° 0 mm 1 mps 754 mmHg 64%
    02:00 +8°C° 0 mm 1 mps 754 mmHg 63%
    03:00 +8°C° 0 mm 1 mps 754 mmHg 62%
    04:00 +9°C° 0 mm 1 mps 754 mmHg 61%
    05:00 +10°C° 0 mm 1 mps 754 mmHg 60%
    06:00 +11°C° 0 mm 0 mps 755 mmHg 56%
    07:00 +14°C° 0 mm 0 mps 755 mmHg 51%
    08:00 +16°C° 0 mm 0 mps 755 mmHg 46%
    09:00 +19°C° 0 mm 1 mps 755 mmHg 42%
    10:00 +20°C° 0 mm 1 mps 755 mmHg 37%
    11:00 +22°C° 0 mm 1 mps 754 mmHg 33%
    12:00 +21°C° 0 mm 2 mps 754 mmHg 33%
    13:00 +23°C° 0 mm 2 mps 754 mmHg 32%
    14:00 +23°C° 0 mm 2 mps 754 mmHg 31%
    15:00 +23°C° 0 mm 2 mps 754 mmHg 35%
    16:00 +21°C° 0 mm 2 mps 754 mmHg 38%
    17:00 +21°C° 0 mm 2 mps 754 mmHg 41%
    18:00 +20°C° 0 mm 1 mps 754 mmHg 49%
    19:00 +16°C° 0 mm 1 mps 754 mmHg 57%
    20:00 +14°C° 0 mm 1 mps 754 mmHg 64%
    21:00 +13°C° 0 mm 1 mps 754 mmHg 66%
    22:00 +12°C° 0 mm 2 mps 754 mmHg 67%
    23:00 +12°C° 0 mm 2 mps 754 mmHg 69%

    Day after tomorrow, 21 May, Tuesday

    Time Temperature Precipitation Wind Pressure Humidity
    00:00 +10°C° 0 mm 2 mps 754 mmHg 68%
    01:00 +10°C° 0 mm 2 mps 754 mmHg 68%
    02:00 +10°C° 0 mm 2 mps 754 mmHg 67%
    03:00 +12°C° 0 mm 2 mps 753 mmHg 65%
    04:00 +11°C° 0 mm 3 mps 753 mmHg 63%
    05:00 +12°C° 0 mm 3 mps 753 mmHg 61%
    06:00 +14°C° 0 mm 3 mps 753 mmHg 59%
    07:00 +17°C° 0 mm 3 mps 752 mmHg 57%
    08:00 +19°C° 0 mm 3 mps 752 mmHg 54%
    09:00 +20°C° 0 mm 3 mps 752 mmHg 51%
    10:00 +22°C° 0 mm 4 mps 752 mmHg 47%
    11:00 +25°C° 0 mm 4 mps 751 mmHg 43%
    12:00 +25°C° 0 mm 4 mps 751 mmHg 43%
    13:00 +25°C° 0 mm 4 mps 751 mmHg 44%
    14:00 +25°C° 0 mm 4 mps 750 mmHg 44%
    15:00 +25°C° 0 mm 4 mps 750 mmHg 46%
    16:00 +23°C° 0 mm 4 mps 749 mmHg 48%
    17:00 +24°C° 0 mm 3 mps 749 mmHg 50%
    18:00 +21°C° 0 mm 3 mps 749 mmHg 58%
    19:00 +19°C° 0 mm 3 mps 749 mmHg 65%
    20:00 +17°C° 0 mm 2 mps 749 mmHg 73%
    21:00 +16°C° 0 mm 2 mps 749 mmHg 73%
    22:00 +16°C° 0 mm 2 mps 748 mmHg 74%
    23:00 +15°C° 0 mm 2 mps 748 mmHg 74%

    22 May, Wednesday

    Time Temperature Precipitation Wind Pressure Humidity
    00:00 +14°C° 0 mm 2 mps 748 mmHg 76%
    01:00 +14°C° 0 mm 2 mps 748 mmHg 79%
    02:00 +13°C° 0 mm 2 mps 748 mmHg 81%
    03:00 +14°C° 0 mm 2 mps 748 mmHg 80%
    04:00 +14°C° 0 mm 2 mps 747 mmHg 80%
    05:00 +15°C° 0 mm 2 mps 747 mmHg 79%
    06:00 +16°C° 0.3 mm 2 mps 747 mmHg 78%
    07:00 +18°C° 0.3 mm 2 mps 747 mmHg 77%
    08:00 +19°C° 0.3 mm 2 mps 747 mmHg 75%
    09:00 +19°C° 1.1 mm 2 mps 746 mmHg 79%
    10:00 +20°C° 1.1 mm 1 mps 746 mmHg 83%
    11:00 +20°C° 1.1 mm 1 mps 746 mmHg 87%
    12:00 +20°C° 1.4 mm 1 mps 746 mmHg 84%
    13:00 +20°C° 1.4 mm 2 mps 745 mmHg 81%
    14:00 +21°C° 1.4 mm 3 mps 745 mmHg 78%
    15:00 +20°C° 1 mm 2 mps 744 mmHg 81%
    16:00 +20°C° 1 mm 2 mps 744 mmHg 84%
    17:00 +20°C° 1 mm 1 mps 744 mmHg 87%
    18:00 +19°C° 0.3 mm 1 mps 744 mmHg 89%
    19:00 +19°C° 0.3 mm 1 mps 744 mmHg 90%
    20:00 +17°C° 0.3 mm 2 mps 743 mmHg 92%
    21:00 +17°C° 0 mm 2 mps 743 mmHg 93%
    22:00 +16°C° 0 mm 2 mps 743 mmHg 93%
    23:00 +16°C° 0 mm 2 mps 743 mmHg 94%

    23 May, Thursday

    Time Temperature Precipitation Wind Pressure Humidity
    00:00 +15°C° 0 mm 1 mps 742 mmHg 95%
    01:00 +15°C° 0 mm 1 mps 742 mmHg 95%
    02:00 +15°C° 0 mm 1 mps 742 mmHg 96%
    03:00 +15°C° 0.2 mm 1 mps 742 mmHg 96%
    04:00 +15°C° 0.2 mm 2 mps 742 mmHg 96%
    05:00 +15°C° 0.2 mm 2 mps 742 mmHg 96%
    06:00 +15°C° 0.2 mm 2 mps 742 mmHg 95%
    07:00 +15°C° 0.2 mm 2 mps 742 mmHg 95%
    08:00 +14°C° 0.2 mm 3 mps 742 mmHg 94%
    09:00 +14°C° 0 mm 3 mps 742 mmHg 92%
    10:00 +14°C° 0 mm 3 mps 743 mmHg 91%
    11:00 +14°C° 0 mm 3 mps 743 mmHg 90%
    12:00 +16°C° 0 mm 3 mps 743 mmHg 83%
    13:00 +17°C° 0 mm 3 mps 743 mmHg 77%
    14:00 +18°C° 0 mm 3 mps 743 mmHg 71%
    15:00 +18°C° 0 mm 3 mps 743 mmHg 67%
    16:00 +18°C° 0 mm 3 mps 743 mmHg 64%
    17:00 +18°C° 0 mm 3 mps 744 mmHg 60%
    18:00 +15°C° 0 mm 4 mps 744 mmHg 62%
    19:00 +14°C° 0 mm 4 mps 744 mmHg 64%
    20:00 +12°C° 0 mm 4 mps 745 mmHg 66%
    21:00 +11°C° 0 mm 3 mps 745 mmHg 68%
    22:00 +10°C° 0 mm 3 mps 745 mmHg 69%
    23:00 +9°C° 0 mm 3 mps 745 mmHg 71%

    24 May, Friday

    Time Temperature Precipitation Wind Pressure Humidity
    00:00 +8°C° 0 mm 3 mps 746 mmHg 72%
    01:00 +8°C° 0 mm 3 mps 746 mmHg 73%
    02:00 +7°C° 0 mm 3 mps 746 mmHg 74%
    03:00 +7°C° 0 mm 3 mps 746 mmHg 72%
    04:00 +7°C° 0 mm 3 mps 746 mmHg 70%
    05:00 +8°C° 0 mm 3 mps 746 mmHg 68%
    06:00 +8°C° 0 mm 4 mps 746 mmHg 63%
    07:00 +11°C° 0 mm 4 mps 746 mmHg 59%
    08:00 +12°C° 0 mm 4 mps 746 mmHg 54%
    09:00 +14°C° 0 mm 4 mps 746 mmHg 51%
    10:00 +15°C° 0 mm 4 mps 746 mmHg 49%
    11:00 +17°C° 0 mm 4 mps 745 mmHg 47%
    12:00 +18°C° 0 mm 4 mps 745 mmHg 48%
    13:00 +18°C° 0 mm 3 mps 745 mmHg 48%
    14:00 +19°C° 0 mm 3 mps 744 mmHg 49%
    15:00 +18°C° 0 mm 3 mps 744 mmHg 53%
    16:00 +17°C° 0 mm 3 mps 744 mmHg 57%
    17:00 +17°C° 0 mm 3 mps 743 mmHg 62%
    18:00 +16°C° 0 mm 3 mps 743 mmHg 63%
    19:00 +14°C° 0 mm 3 mps 743 mmHg 65%
    20:00 +14°C° 0 mm 3 mps 743 mmHg 67%
    21:00 +13°C° 0.2 mm 3 mps 742 mmHg 73%
    22:00 +12°C° 0.2 mm 3 mps 742 mmHg 79%
    23:00 +11°C° 0.2 mm 3 mps 742 mmHg 85%
    Show more